Weather History for Harrison, AR

Change the Weather History Date:

Wednesday, June 6, 2012

  Actual Average Record
Temperature  
Mean Temperature 71 °F 71 °F  
Max Temperature 84 °F 82 °F 101 °F (1933)
Min Temperature 57 °F 61 °F 47 °F (1998)
Degree Days  
Heating Degree Days 0 0  
Month to date heating degree days 5 3  
Since 1 June heating degree days 5 3  
Since 1 July heating degree days 3081 4001  
Cooling Degree Days 6 7  
Month to date cooling degree days 40 37  
Year to date cooling degree days 367 176  
Since 1 June cooling degree days 40 37  
Growing Degree Days 20 (Base 50)    
Moisture  
Dew Point 53 °F    
Average Humidity 57    
Maximum Humidity 80    
Minimum Humidity 34    
Precipitation  
Precipitation 0.00 in 0.14 in 0.97 in (1978)
Month to date precipitation 0.41 0.88  
Year to date precipitation 13.90 18.88  
Snow  
Snow 0.00 in 0.00 in - ()
Month to date snowfall 0.0 0.0  
Since 1 June snowfall 0.0 0.0  
Since 1 July snowfall 2.1 11.5  
Snow Depth 0.00 in    
Sea Level Pressure  
Sea Level Pressure 29.95 in    
Wind  
Wind Speed 6 mph (ESE)    
Max Wind Speed 15 mph    
Max Gust Speed 22 mph    
Visibility 10 miles    
Events      
T = Trace of Precipitation, MM = Missing Value Source: NWS Daily Summary

Daily Weather History Graph

Daily Weather History Graph

Search for Another Location

Airport:

Trip Planner

Search our weather history database for the weather conditions in past years. The results will help you decide how hot, cold, wet, or windy it might be!

Date:

Astronomy

Jun. 06, 2012 Rise Set
Actual Time 5:55 AM CDT 8:27 PM CDT
Civil Twilight 5:25 AM CDT 8:58 PM CDT
Nautical Twilight 4:47 AM CDT 9:35 PM CDT
Astronomical Twilight 4:06 AM CDT 10:16 PM CDT
Moon 10:42 PM CDT (6/6) 8:15 AM CDT (6/6)
Length of Visible Light 15h 33m
Length of Day
14h 32m
Waning Gibbous, 93% of the Moon is Illuminated
Jun 6
Waning Gibbous
Jun 11
Last Quarter
Jun 19
New
Jun 26
First Quarter
Jul 3
Full

Hourly Weather History & Observations

Time (CDT) Temp. Heat Index Dew Point Humidity Pressure Visibility Wind Dir Wind Speed Gust Speed Precip Events Conditions
12:53 AM 66.0 °F - 53.1 °F 63% 29.90 in 10.0 mi ESE 3.5 mph - N/A   Clear
1:53 AM 66.2 °F - 53.6 °F 64% 29.93 in 10.0 mi SE 5.8 mph - N/A   Clear
2:53 AM 62.1 °F - 53.1 °F 72% 29.89 in 10.0 mi South 3.5 mph - N/A   Clear
3:53 AM 60.1 °F - 53.1 °F 78% 29.89 in 10.0 mi Calm Calm - N/A   Clear
4:53 AM 60.8 °F - 53.6 °F 77% 29.95 in 10.0 mi Calm Calm - N/A   Clear
5:53 AM 59.0 °F - 53.1 °F 81% 29.93 in 10.0 mi Calm Calm - N/A   Clear
6:53 AM 59.0 °F - 54.0 °F 83% 29.95 in 10.0 mi SSE 3.5 mph - N/A   Clear
7:53 AM 66.0 °F - 55.9 °F 70% 29.97 in 10.0 mi ESE 3.5 mph - N/A   Clear
8:53 AM 70.0 °F - 55.0 °F 59% 29.97 in 10.0 mi SE 5.8 mph - N/A   Clear
9:53 AM 73.4 °F - 53.6 °F 50% 30.00 in 10.0 mi ESE 6.9 mph - N/A   Clear
10:53 AM 77.0 °F - 51.1 °F 40% 29.96 in 10.0 mi East 12.7 mph 17.3 mph N/A   Clear
11:53 AM 79.0 °F - 52.0 °F 39% 29.96 in 10.0 mi East 13.8 mph 18.4 mph N/A   Clear
12:53 PM 81.0 °F 80.4 °F 53.1 °F 38% 29.96 in 10.0 mi SE 12.7 mph 18.4 mph N/A   Clear
1:53 PM 82.0 °F - 52.0 °F 35% 29.95 in 10.0 mi ENE 11.5 mph 16.1 mph N/A   Clear
2:53 PM 82.0 °F - 51.1 °F 34% 29.96 in 10.0 mi East 9.2 mph - N/A   Clear
3:53 PM 82.4 °F - 51.8 °F 35% 29.99 in 10.0 mi Variable 6.9 mph 21.9 mph N/A   Partly Cloudy
4:53 PM 82.4 °F - 51.8 °F 35% 29.97 in 10.0 mi SE 6.9 mph - N/A   Partly Cloudy
5:53 PM 82.0 °F - 51.1 °F 34% 29.92 in 10.0 mi East 12.7 mph 18.4 mph N/A   Clear
6:53 PM 80.1 °F - 50.0 °F 35% 29.94 in 10.0 mi East 8.1 mph - N/A   Clear
7:53 PM 77.0 °F - 51.1 °F 40% 29.94 in 10.0 mi East 5.8 mph - N/A   Clear
8:53 PM 73.9 °F - 52.0 °F 46% 29.95 in 10.0 mi Calm Calm - N/A   Clear
9:53 PM 71.1 °F - 52.0 °F 51% 29.97 in 10.0 mi Calm Calm - N/A   Clear
10:53 PM 66.0 °F - 53.1 °F 63% 30.00 in 10.0 mi South 3.5 mph - N/A   Clear
11:53 PM 64.9 °F - 53.1 °F 65% 30.01 in 10.0 mi Calm Calm - N/A   Clear